CW6641 Weather Reports


Display with metric or nautical units.
time (UTC)temp
F
wind
direction
speed
MPH
gust
MPH
rain 1hr
in
rain 24hr
in
rain mn
in
humidity
%
barometer
mb
20260506081914 48 0.0 0.0 0.02 0.08 0.08 89 1010.6
20260506081414 48 0.0 0.0 0.00 0.07 0.07 89 1010.5
20260506080910 48 0.0 0.0 0.00 0.07 0.07 89 1010.7
20260506080407 48 0.0 0.0 0.00 0.07 0.07 89 1010.4
20260506073351 49 0.0 0.0 0.05 0.07 0.07 89 1009.2
20260506072847 49 0.0 0.0 0.05 0.07 0.07 89 1008.4
20260506072345 49 0.0 0.0 0.02 0.06 0.06 90 1008.6
20260506071843 49 0.0 0.0 0.02 0.06 0.06 89 1009.3
20260506071341 49 0.0 0.0 0.02 0.06 0.06 89 1008.8
20260506070837 49 0.0 0.0 0.02 0.06 0.06 89 1009.2
20260506070334 49 0.0 0.0 0.02 0.06 0.06 89 1009.6
20260506062312 49 0.0 0.0 0.02 0.05 0.05 90 1009.8
20260506061807 49 0.0 0.0 0.05 0.05 0.05 90 1009.4
20260506061304 50 0.0 0.0 0.12 0.04 0.04 90 1009.7
20260506060803 49 0.0 0.0 0.14 0.04 0.04 90 1010.2
20260506060301 49 0.0 0.0 0.07 0.02 0.02 90 1010.0
20260506051232 50 0.0 0.0 0.02 0.00 0.00 90 1009.2
20260506050730 50 0.0 0.0 0.00 0.00 0.00 90 1009.2
20260506050227 50 0.0 0.0 0.02 0.00 0.00 90 1009.1
20260506044718 50 0.0 0.0 0.42 1.40 1.40 90 1009.4
20260506044215 50 0.0 0.0 0.47 1.37 1.37 90 1008.9
20260506043712 50 0.0 0.0 0.26 1.33 1.33 90 1009.4
20260506043210 50 0.0 0.0 0.05 1.29 1.29 90 1008.6
20260506042709 50 0.0 0.0 0.02 1.29 1.29 90 1008.4
20260506042206 50 0.0 0.0 0.00 1.28 1.28 90 1008.5
20260506041705 50 0.0 0.0 0.00 1.28 1.28 90 1008.2
20260506041201 50 0.0 0.0 0.00 1.28 1.28 90 1008.4
20260506040659 50 0.0 0.0 0.02 1.28 1.28 90 1008.3
20260506040155 50 0.0 0.0 0.05 1.28 1.28 90 1008.4
20260506035652 50 0.0 0.0 0.21 1.28 1.28 90 1008.5
20260506035149 51 0.0 0.0 0.28 1.28 1.28 90 1008.6
20260506034646 51 0.0 0.0 0.09 1.24 1.24 90 1008.7
20260506034143 51 0.0 0.0 0.00 1.23 1.23 90 1008.5
20260506033640 50 0.0 0.0 0.00 1.23 1.23 90 1008.2
20260506033137 50 0.0 0.0 0.00 1.23 1.23 90 1007.9
20260506032634 51 0.0 0.0 0.00 1.23 1.23 90 1007.9
20260506032131 51 0.0 0.0 0.02 1.23 1.23 90 1007.9
20260506031628 51 0.0 0.0 0.02 1.23 1.23 90 1007.8
20260506031125 51 0.0 0.0 0.00 1.22 1.22 90 1008.2
20260506030624 51 0.0 0.0 0.02 1.22 1.22 90 1007.8
20260506030120 51 0.0 0.0 0.05 1.22 1.22 90 1008.1
20260506025617 51 0.0 0.0 0.05 1.22 1.22 90 1008.1
20260506025113 52 0.0 0.0 0.12 1.22 1.22 90 1008.1
20260506024611 52 0.0 0.0 0.12 1.21 1.21 90 1008.0
20260506024107 52 0.0 0.0 0.05 1.20 1.20 90 1007.9
20260506023603 52 0.0 0.0 0.05 1.19 1.19 90 1007.9
20260506023101 52 0.0 0.0 0.07 1.19 1.19 90 1007.6
20260506022558 52 0.0 0.0 0.07 1.19 1.19 90 1007.5
20260506022055 52 0.0 0.0 0.05 1.18 1.18 90 1007.2
20260506021553 52 0.0 0.0 0.02 1.17 1.17 90 1007.6
20260506021050 52 0.0 0.0 0.00 1.17 1.17 90 1007.2
20260506020547 52 0.0 0.0 0.00 1.17 1.17 90 1007.3
20260506020044 52 0.0 0.0 0.00 1.17 1.17 90 1007.6
20260506015542 52 0.0 0.0 0.17 1.17 1.17 90 1007.2
20260506015039 52 0.0 0.0 0.31 1.17 1.17 90 1006.0
20260506014536 52 0.0 0.0 0.26 1.14 1.14 90 1006.3
20260506014032 52 0.0 0.0 0.12 1.11 1.11 90 1006.8
20260506013531 52 0.0 0.0 0.05 1.09 1.09 90 1007.6
20260506013027 52 0.0 0.0 0.07 1.09 1.09 90 1007.2
20260506012523 53 0.0 0.0 0.07 1.09 1.09 90 1007.1
20260506012020 52 0.0 0.0 0.02 1.08 1.08 90 1007.1
20260506011517 53 0.0 0.0 0.00 1.07 1.07 90 1007.3
20260506011013 53 0.0 0.0 0.00 1.07 1.07 90 1007.6
20260506010508 53 0.0 0.0 0.00 1.07 1.07 90 1007.3
20260506010003 53 0.0 0.0 0.00 1.07 1.07 90 1007.3
20260506005501 53 0.0 0.0 0.02 1.07 1.07 90 1007.2
20260506004956 53 0.0 0.0 0.02 1.07 1.07 90 1007.2
20260506004454 53 0.0 0.0 0.00 1.07 1.07 90 1007.2
20260506003950 53 0.0 0.0 0.00 1.07 1.07 90 1007.5
20260506003446 53 0.0 0.0 0.02 1.07 1.07 90 1007.5
20260506002943 53 0.0 0.0 0.05 1.07 1.07 90 1007.3
20260506002439 53 0.0 0.0 0.07 1.07 1.07 90 1007.3
20260506001934 53 0.0 0.0 0.07 1.06 1.06 90 1007.6
20260506001432 53 0.0 0.0 0.07 1.05 1.05 90 1007.6
20260506000929 54 0.0 0.0 0.07 1.05 1.05 90 1006.7
20260506000426 54 0.0 0.0 0.05 1.04 1.04 90 1007.7
20260505235923 54 0.0 0.0 0.05 1.04 1.04 89 1007.5
20260505235421 54 0.0 0.0 0.05 1.03 1.03 89 1007.3
20260505234918 54 0.0 0.0 0.05 1.03 1.03 89 1007.5
20260505234416 55 0.0 0.0 0.02 1.03 1.03 89 1007.5
20260505233912 55 0.0 0.0 0.02 1.02 1.02 89 1007.6
20260505233410 55 0.0 0.0 0.05 1.02 1.02 89 1007.3
20260505232907 55 0.0 0.0 0.05 1.02 1.02 90 1007.3
20260505232405 55 0.0 0.0 0.05 1.02 1.02 89 1007.1
20260505231901 56 0.0 0.0 0.09 1.01 1.01 89 1007.2
20260505231359 56 0.0 0.0 0.14 1.01 1.01 89 1007.2
20260505230857 56 0.0 0.0 0.26 1.00 1.00 88 1007.6
20260505230354 57 0.0 0.0 0.40 0.98 0.98 88 1007.3
20260505225850 58 0.0 0.0 0.47 0.94 0.94 87 1007.2
20260505225348 60 0.0 0.0 0.35 0.90 0.90 87 1007.6
20260505224843 61 0.0 0.0 0.26 0.87 0.87 89 1007.1
20260505224341 61 0.0 0.0 0.26 0.84 0.84 89 1007.0
20260505223838 61 0.0 0.0 0.28 0.82 0.82 90 1006.9
20260505223335 61 0.0 0.0 0.21 0.80 0.80 89 1006.9
20260505222830 61 0.0 0.0 0.17 0.77 0.77 89 1007.0
20260505222327 61 0.0 0.0 0.17 0.76 0.76 89 1007.1
20260505221824 61 0.0 0.0 0.14 0.74 0.74 89 1007.0
20260505221321 61 0.0 0.0 0.14 0.73 0.73 89 1007.1
20260505220818 61 0.0 0.0 0.17 0.72 0.72 89 1007.1
20260505220314 61 0.0 0.0 0.26 0.71 0.71 89 1007.1
20260505215813 61 0.0 0.0 0.33 0.69 0.69 89 1007.1
20260505215310 61 0.0 0.0 0.35 0.67 0.67 89 1007.2
20260505214808 61 0.0 0.0 0.21 0.63 0.63 89 1007.5
20260505214305 61 0.0 0.0 0.17 0.60 0.60 89 1007.2
20260505213802 61 0.0 0.0 0.17 0.59 0.59 89 1007.1
20260505213300 61 0.0 0.0 0.14 0.57 0.57 89 1007.1
20260505212755 61 0.0 0.0 0.21 0.56 0.56 89 1006.9
20260505212253 61 0.0 0.0 0.21 0.55 0.55 89 1007.0
20260505211749 61 0.0 0.0 0.31 0.53 0.53 88 1007.0
20260505211247 61 0.0 0.0 0.33 0.50 0.50 88 1007.2
20260505210743 61 0.0 0.0 0.52 0.47 0.47 88 1007.2
20260505210240 61 0.0 0.0 0.45 0.45 0.45 88 1007.5
20260505205737 61 0.0 0.0 0.17 0.39 0.39 88 1007.2
20260505205236 61 0.0 0.0 0.19 0.37 0.37 88 1007.3
20260505204732 61 0.0 0.0 0.33 0.36 0.36 88 1007.2
20260505204230 61 0.0 0.0 0.38 0.34 0.34 88 1007.2
20260505203726 61 0.0 0.0 0.26 0.30 0.30 88 1007.1
20260505203224 61 0.0 0.0 0.12 0.27 0.27 88 1007.3
20260505202719 61 0.0 0.0 0.09 0.26 0.26 88 1007.3
20260505202216 61 0.0 0.0 0.14 0.25 0.25 88 1007.7
20260505201712 61 0.0 0.0 0.12 0.24 0.24 88 1007.6
20260505201210 61 0.0 0.0 0.05 0.23 0.23 88 1007.8
20260505200708 61 0.0 0.0 0.02 0.22 0.22 88 1007.9
20260505200205 61 0.0 0.0 0.00 0.22 0.22 88 1008.0
20260505195700 61 0.0 0.0 0.00 0.22 0.22 88 1007.7
20260505195158 61 0.0 0.0 0.00 0.22 0.22 88 1008.1
20260505194655 61 0.0 0.0 0.00 0.22 0.22 88 1008.0
20260505194151 62 0.0 0.0 0.00 0.22 0.22 88 1007.9
20260505193648 62 0.0 0.0 0.00 0.22 0.22 88 1008.0
20260505193145 62 0.0 0.0 0.00 0.22 0.22 88 1008.2
20260505192644 62 0.0 0.0 0.00 0.22 0.22 88 1008.2
20260505192141 62 0.0 0.0 0.00 0.22 0.22 88 1008.4
20260505191639 62 0.0 0.0 0.00 0.22 0.22 88 1008.5
20260505191137 62 0.0 0.0 0.00 0.22 0.22 89 1008.4
20260505190633 61 0.0 0.0 0.00 0.22 0.22 89 1008.5
20260505190127 61 0.0 0.0 0.00 0.22 0.22 89 1008.7
20260505185624 61 0.0 0.0 0.00 0.22 0.22 89 1008.9
20260505185120 61 0.0 0.0 0.00 0.22 0.22 89 1008.7
20260505184617 61 0.0 0.0 0.00 0.22 0.22 89 1008.6
20260505184114 62 0.0 0.0 0.00 0.22 0.22 89 1008.7
20260505183611 62 0.0 0.0 0.02 0.22 0.22 89 1008.9
20260505183109 62 0.0 0.0 0.02 0.22 0.22 89 1009.0
20260505182604 61 0.0 0.0 0.00 0.22 0.22 88 1008.7
20260505182101 62 0.0 0.0 0.00 0.22 0.22 89 1008.7
20260505181558 61 0.0 0.0 0.07 0.22 0.22 89 1008.7
20260505181055 62 0.0 0.0 0.09 0.22 0.22 89 1008.9
20260505180551 61 0.0 0.0 0.05 0.20 0.20 88 1009.1
20260505180049 61 0.0 0.0 0.05 0.20 0.20 88 1009.0
20260505175544 61 0.0 0.0 0.02 0.20 0.20 88 1008.9
20260505175041 61 0.0 0.0 0.00 0.19 0.19 88 1009.0
20260505174538 61 0.0 0.0 0.00 0.19 0.19 88 1008.8
20260505174033 61 0.0 0.0 0.00 0.19 0.19 88 1008.8
20260505173531 61 0.0 0.0 0.02 0.19 0.19 88 1009.0
20260505173027 61 0.0 0.0 0.02 0.19 0.19 88 1009.2
20260505172525 62 0.0 0.0 0.02 0.19 0.19 88 1009.0
20260505172021 61 0.0 0.0 0.05 0.19 0.19 88 1008.7
20260505171516 61 0.0 0.0 0.05 0.18 0.18 87 1008.5
20260505171014 61 0.0 0.0 0.05 0.18 0.18 87 1008.6
20260505170510 61 0.0 0.0 0.02 0.18 0.18 87 1008.9
20260505170007 61 0.0 0.0 0.02 0.17 0.17 87 1009.0
20260505165502 61 0.0 0.0 0.05 0.17 0.17 87 1008.7
20260505164958 61 0.0 0.0 0.05 0.17 0.17 87 1009.0
20260505164454 61 0.0 0.0 0.05 0.17 0.17 87 1009.2
20260505163952 60 0.0 0.0 0.05 0.16 0.16 87 1009.3
20260505163451 60 0.0 0.0 0.02 0.16 0.16 87 1009.4
20260505162950 60 0.0 0.0 0.02 0.15 0.15 87 1009.6
20260505162445 60 0.0 0.0 0.02 0.15 0.15 87 1009.5
20260505161942 60 0.0 0.0 0.05 0.15 0.15 87 1009.7
20260505161438 60 0.0 0.0 0.07 0.15 0.15 86 1009.7
20260505160936 60 0.0 0.0 0.12 0.14 0.14 86 1009.8
20260505160434 60 0.0 0.0 0.12 0.13 0.13 85 1009.9
20260505152910 63 0.0 0.0 0.07 0.02 0.02 75 1009.4
20260505152408 64 0.0 0.0 0.05 0.02 0.02 74 1009.8
20260505151907 64 0.0 0.0 0.05 0.01 0.01 71 1009.8
20260505151404 65 0.0 0.0 0.05 0.01 0.01 69 1009.7
20260505150901 65 0.0 0.0 0.00 0.00 0.00 67 1009.6
20260505150359 65 0.0 0.0 0.00 0.00 0.00 67 1009.4
20260505140323 63 0.0 0.0 0.00 0.00 0.00 67 1009.0
20260505130246 63 0.0 0.0 0.00 0.00 0.00 65 1008.6
20260505124737 63 0.0 0.0 0.00 0.00 0.00 67 1008.5
20260505124233 63 0.0 0.0 0.00 0.00 0.00 66 1008.7
20260505123729 63 0.0 0.0 0.00 0.00 0.00 66 1008.4
20260505123226 63 0.0 0.0 0.00 0.00 0.00 67 1008.7
20260505122722 63 0.0 0.0 0.00 0.00 0.00 65 1008.7
20260505122220 63 0.0 0.0 0.00 0.00 0.00 65 1008.8
20260505121716 63 0.0 0.0 0.00 0.00 0.00 64 1009.0
20260505121213 63 0.0 0.0 0.00 0.00 0.00 64 1008.7
20260505120709 63 0.0 0.0 0.00 0.00 0.00 64 1008.7
20260505120205 63 0.0 0.0 0.00 0.00 0.00 63 1008.8
20260505115659 64 0.0 0.0 0.00 0.00 0.00 63 1008.8
20260505115157 64 0.0 0.0 0.00 0.00 0.00 63 1008.6
20260505114654 64 0.0 0.0 0.00 0.00 0.00 64 1008.6
20260505114150 64 0.0 0.0 0.00 0.00 0.00 62 1008.6
20260505113646 64 0.0 0.0 0.00 0.00 0.00 62 1008.7
20260505113143 64 0.0 0.0 0.00 0.00 0.00 62 1008.4
20260505112640 64 0.0 0.0 0.00 0.00 0.00 62 1008.4
20260505112138 65 0.0 0.0 0.00 0.00 0.00 62 1008.5
20260505111637 65 0.0 0.0 0.00 0.00 0.00 63 1008.4
20260505111133 65 0.0 0.0 0.00 0.00 0.00 64 1008.5
20260505110629 65 0.0 0.0 0.00 0.00 0.00 60 1008.3
20260505110127 65 0.0 0.0 0.00 0.00 0.00 60 1008.4
20260505102102 66 0.0 0.0 0.00 0.00 0.00 58 1007.9
20260505101601 66 0.0 0.0 0.00 0.00 0.00 58 1008.0
20260505101057 66 0.0 0.0 0.00 0.00 0.00 58 1008.0
20260505100553 66 0.0 0.0 0.00 0.00 0.00 58 1007.9
20260505100050 66 0.0 0.0 0.00 0.00 0.00 57 1007.9
20260505095547 66 0.0 0.0 0.00 0.00 0.00 57 1008.2
20260505095043 66 0.0 0.0 0.00 0.00 0.00 57 1008.0
20260505094540 66 0.0 0.0 0.00 0.00 0.00 57 1008.3
20260505094036 66 0.0 0.0 0.00 0.00 0.00 57 1008.2
20260505093533 66 0.0 0.0 0.00 0.00 0.00 57 1008.3
20260505093030 66 0.0 0.0 0.00 0.00 0.00 57 1007.7
20260505092527 66 0.0 0.0 0.00 0.00 0.00 57 1008.2
20260505092026 66 0.0 0.0 0.00 0.00 0.00 57 1008.1
20260505091522 66 0.0 0.0 0.00 0.00 0.00 57 1008.0
20260505091020 66 0.0 0.0 0.00 0.00 0.00 57 1008.2
20260505090518 66 0.0 0.0 0.00 0.00 0.00 57 1008.1
20260505090016 66 0.0 0.0 0.00 0.00 0.00 57 1008.0
20260505085513 66 0.0 0.0 0.00 0.00 0.00 57 1007.9
20260505085011 66 0.0 0.0 0.00 0.00 0.00 57 1008.0
20260505084509 66 0.0 0.0 0.00 0.00 0.00 57 1008.2
20260505084007 66 0.0 0.0 0.00 0.00 0.00 57 1007.9
20260505083504 66 0.0 0.0 0.00 0.00 0.00 57 1008.0
20260505083000 66 0.0 0.0 0.00 0.00 0.00 56 1007.9
20260505082456 66 0.0 0.0 0.00 0.00 0.00 56 1007.9